This demonstration page uses our WeatherBlox Daily Observations layout. Learn more.

Hourly Observations for October 30, 2019

Temp ( °F °C ) Dew Point ( °F °C ) Humidity (%) Winds ( mph kmh ) Pressure ( in mb ) Visibility ( mi km ) Precip ( " mm )
12:54 am 00:54 Cloudy 31 -0.6 21 -6.1 67 67 N 15 24 30.39 1029 10 16.09344 0 0
1:54 am 01:54 Cloudy 31 -0.6 18 -7.8 59 59 N 15 24 30.39 1029 10 16.09344 0 0
2:54 am 02:54 Cloudy 30 -1.1 17 -8.3 58 58 N 15 24 30.42 1030 10 16.09344 0 0
3:54 am 03:54 Cloudy 30 -1.1 16 -8.9 56 56 N 14 22 30.39 1029 10 16.09344 0 0
4:54 am 04:54 Cloudy 29 -1.7 16 -8.9 58 58 N 13 20 30.39 1029 10 16.09344 0 0
5:54 am 05:54 Cloudy 29 -1.7 15 -9.4 56 56 N 16 26 30.42 1030 10 16.09344 0 0
6:54 am 06:54 Cloudy 28 -2.2 17 -8.3 63 63 N 16 26 30.42 1030 10 16.09344 0 0
7:54 am 07:54 Cloudy 27 -2.8 19 -7.2 72 72 N 17 28 30.42 1030 10 16.09344 0 0
8:54 am 08:54 Cloudy 27 -2.8 20 -6.7 75 75 N 18 30 30.42 1030 10 16.09344 0 0
9:54 am 09:54 Cloudy with Light Snow 27 -2.8 21 -6.1 78 78 N 13 20 30.45 1031 5 8.04672 0.001 0.001
10:02 am 10:02 Cloudy with Light Snow 27 -2.8 21 -6.1 78 78 N 13 20 30.48 1032 4 6.437376 0.001 0.001
10:05 am 10:05 Cloudy with Light Snow 27 -2.8 21 -6.1 78 78 N 13 20 30.48 1032 4 6.437376 0.001 0.001
10:22 am 10:22 Cloudy with Light Snow 27 -2.8 22 -5.6 81 81 N 13 20 30.48 1032 2 3.218688 0.001 0.001
10:35 am 10:35 Cloudy with Light Snow 27 -2.8 21 -6.1 78 78 N 17 28 30.45 1031 2.5 4.02336 0.001 0.001
10:54 am 10:54 Cloudy with Light Snow 27 -2.8 22 -5.6 81 81 N 16 26 30.45 1031 1.5 2.414016 0.001 0.001
11:07 am 11:07 Cloudy with Light Snow 28 -2.2 22 -5.6 78 78 N 16 26 30.48 1032 2 3.218688 0.001 0.001
11:14 am 11:14 Cloudy with Light Snow 27 -2.8 22 -5.6 81 81 N 17 28 30.48 1032 2 3.218688 0.001 0.001
11:29 am 11:29 Cloudy with Light Snow 28 -2.2 22 -5.6 78 78 N 17 28 30.45 1031 2 3.218688 0.001 0.001
11:52 am 11:52 Cloudy with Light Snow 28 -2 21 -6 74 74 N 17 28 30.45 1031 3 4.828032 0.01 0.254
11:54 am 11:54 Cloudy with Light Snow 29 -1.7 22 -5.6 75 75 N 17 28 30.45 1031 3 4.828032 0.01 0.254
12:06 pm 12:06 Cloudy with Light Snow 28 -2.2 22 -5.6 78 78 N 15 24 30.45 1031 2.5 4.02336 0.001 0.001
12:14 pm 12:14 Cloudy with Light Snow 28 -2.2 22 -5.6 78 78 N 15 24 30.45 1031 3 4.828032 0.001 0.001
12:30 pm 12:30 Cloudy 29 -1.7 22 -5.6 75 75 N 16 26 30.45 1031 9 14.484096 0.001 0.001
12:54 pm 12:54 Cloudy 30 -1.1 22 -5.6 72 72 N 16 26 30.42 1030 10 16.09344 0.001 0.001
1:54 pm 13:54 Cloudy with Light Snow 31 -0.6 22 -5.6 69 69 N 15 24 30.36 1028 4 6.437376 0.001 0.001
2:54 pm 14:54 Cloudy 31 -0.6 21 -6.1 67 67 N 10 17 30.33 1027 10 16.09344 0.001 0.001
3:08 pm 15:08 Cloudy 31 -0.6 20 -6.7 64 64 N 10 17 30.36 1028 10 16.09344 0 0
3:54 pm 15:54 Mostly Cloudy 32 0 19 -7.2 59 59 N 10 17 30.33 1027 10 16.09344 0 0
4:54 pm 16:54 Cloudy 33 0.6 17 -8.3 52 52 N 7 11 30.3 1026 10 16.09344 0 0
5:54 pm 17:54 Mostly Cloudy 33 0.6 17 -8.3 52 52 NNW 16 26 30.3 1026 10 16.09344 0 0
6:54 pm 18:54 Mostly Cloudy 32 0 18 -7.8 56 56 NW 7 11 30.3 1026 10 16.09344 0 0
7:54 pm 19:54 Mostly Cloudy 30 -1.1 17 -8.3 58 58 NW 9 15 30.3 1026 10 16.09344 0 0
8:54 pm 20:54 Mostly Clear 30 -1.1 17 -8.3 58 58 NW 8 13 30.3 1026 10 16.09344 0 0
9:54 pm 21:54 Cloudy 31 -0.6 17 -8.3 56 56 NNW 8 13 30.3 1026 10 16.09344 0 0
10:54 pm 22:54 Cloudy 30 -1.1 17 -8.3 58 58 NW 5 7 30.33 1027 10 16.09344 0 0
11:54 pm 23:54 Mostly Cloudy 29 -1.7 16 -8.9 58 58 NW 5 7 30.33 1027 10 16.09344 0 0

Powered by AerisWeather